Weather History for PADQ - November, 2011

Change the Weather History Date:

Wednesday, November 23, 2011

  Actual Average Record
Temperature  
Mean Temperature 17 °F 33 °F  
Max Temperature 20 °F 38 °F 49 °F (2010)
Min Temperature 14 °F 28 °F 7 °F (2005)
Degree Days  
Heating Degree Days 48 32  
Month to date heating degree days 800 704  
Since 1 July heating degree days 2600 2562  
Cooling Degree Days 0    
Month to date cooling degree days 0  
Year to date cooling degree days 0  
Moisture  
Dew Point 8 °F    
Average Humidity 0    
Maximum Humidity 0    
Minimum Humidity 0    
Precipitation  
Precipitation 0.00 in 0.24 in 1.07 in (1975)
Month to date precipitation 3.64 5.13  
Year to date precipitation 63.72 67.53  
Snow  
Snow 0.00 in 0.30 in 8.90 in (1991)
Month to date snowfall 25.1 4.0  
Since 1 July snowfall 25.1 5.1  
Since 1 September snowfall 25.1 5.1  
Snow Depth 9.00 in    
Sea Level Pressure  
Sea Level Pressure 29.06 in    
Wind  
Wind Speed 18 mph (WNW)    
Max Wind Speed 31 mph    
Max Gust Speed 45 mph    
Visibility 8 miles    
Events Snow    
T = Trace of Precipitation, MM = Missing Value Source: NWS Daily Summary

Daily Weather History Graph

Daily Weather History Graph

Search for Another Location

Airport or City:

Trip Planner

Search our weather history database for the weather conditions in past years. The results will help you decide how hot, cold, wet, or windy it might be!

Date:

Astronomy

Nov. 23, 2011 Rise Set
Actual Time 9:12 AM AKST 4:39 PM AKST
Civil Twilight 8:25 AM AKST 5:26 PM AKST
Nautical Twilight 7:36 AM AKST 6:16 PM AKST
Astronomical Twilight 6:49 AM AKST 7:02 PM AKST
Moon 7:22 AM AKST (11/23) 3:32 PM AKST (11/23)
Length of Visible Light 9h 01m
Length of Day
7h 27m
Waning Crescent, 3% of the Moon is Illuminated
Nov 23
Waning Crescent
Nov 24
New
Dec 2
First Quarter
Dec 10
Full
Dec 17
Last Quarter

Hourly Weather History & Observations

Time (AKST) Temp. Windchill Dew Point Humidity Pressure Visibility Wind Dir Wind Speed Gust Speed Precip Events Conditions
12:53 AM 15.1 °F -4.0 °F 8.1 °F 74% 29.03 in 6.0 mi WNW 25.3 mph 32.2 mph 0.00 in Snow Blowing Snow
1:53 AM 15.1 °F -1.1 °F 7.0 °F 70% 29.03 in 6.0 mi WNW 17.3 mph 29.9 mph N/A Snow Blowing Snow
3:53 AM 17.1 °F -1.0 °F 7.0 °F 65% 29.03 in 6.0 mi WNW 24.2 mph 31.1 mph N/A Snow Blowing Snow
4:53 AM 18.0 °F -0.2 °F 8.1 °F 65% 29.02 in 6.0 mi WNW 25.3 mph 36.8 mph N/A Snow Blowing Snow
5:53 AM 17.1 °F -1.0 °F 8.1 °F 68% 29.02 in 6.0 mi WNW 24.2 mph 32.2 mph N/A Snow Blowing Snow
6:53 AM 17.1 °F -0.6 °F 8.1 °F 68% 29.03 in 6.0 mi WNW 23.0 mph 32.2 mph N/A Snow Blowing Snow
7:53 AM 17.1 °F 1.0 °F 7.0 °F 65% 29.04 in 6.0 mi WNW 18.4 mph 26.5 mph N/A Snow Blowing Snow
8:53 AM 17.1 °F 3.6 °F 8.1 °F 68% 29.05 in 10.0 mi WNW 12.7 mph 20.7 mph N/A   Scattered Clouds
9:53 AM 17.1 °F 4.3 °F 9.0 °F 71% 29.06 in 10.0 mi NW 11.5 mph - N/A   Scattered Clouds
10:53 AM 19.0 °F 6.8 °F 10.9 °F 71% 29.07 in 10.0 mi WNW 11.5 mph - N/A   Mostly Cloudy
11:53 AM 19.0 °F 6.8 °F 10.0 °F 68% 29.06 in 10.0 mi WNW 11.5 mph - N/A   Mostly Cloudy
12:53 PM 19.0 °F 6.8 °F 10.0 °F 68% 29.07 in 10.0 mi WNW 11.5 mph - N/A   Mostly Cloudy
1:53 PM 19.0 °F 5.0 °F 10.0 °F 68% 29.06 in 10.0 mi WNW 15.0 mph - N/A   Mostly Cloudy
2:53 PM 19.0 °F 5.6 °F 9.0 °F 65% 29.06 in 10.0 mi WNW 13.8 mph - N/A   Overcast
3:53 PM 19.0 °F 6.8 °F 9.0 °F 65% 29.07 in 10.0 mi WNW 11.5 mph - N/A   Overcast
4:53 PM 19.0 °F 6.1 °F 10.0 °F 68% 29.06 in 6.0 mi WNW 12.7 mph 20.7 mph 0.00 in Snow Light Snow
5:53 PM 18.0 °F 6.9 °F 9.0 °F 68% 29.07 in 9.0 mi NW 9.2 mph 19.6 mph 0.00 in Snow Light Snow
6:53 PM 18.0 °F 4.2 °F 9.0 °F 68% 29.07 in 9.0 mi NW 13.8 mph 18.4 mph 0.00 in Snow Light Snow
7:53 PM 17.1 °F 3.0 °F 8.1 °F 68% 29.07 in 7.0 mi WNW 13.8 mph 19.6 mph 0.00 in Snow Light Snow
8:53 PM 17.1 °F 3.6 °F 7.0 °F 65% 29.08 in 7.0 mi NW 12.7 mph 19.6 mph 0.00 in   Overcast
9:53 PM 16.0 °F 2.9 °F 5.0 °F 62% 29.08 in 10.0 mi WNW 11.5 mph 20.7 mph N/A   Overcast
10:53 PM 16.0 °F 1.7 °F 3.9 °F 59% 29.08 in 10.0 mi NW 13.8 mph 23.0 mph N/A   Overcast
11:53 PM 15.1 °F -1.1 °F 3.9 °F 61% 29.09 in 10.0 mi WNW 17.3 mph 24.2 mph N/A   Overcast